#timestamp,LO_Frequency,Hit,StdDev 
1582783215.3,286047000.0,N
1582783235.1,286047002.8,N
1582783255.8,286046999.7,N
1582783275.7,286047001.5,N
1582783295.5,286047002.5,N
1582783315.4,286047000.1,N
1582783335.2,286047000.5,N
1582783355.0,286047000.4,N
1582783355.9,286047000.4,N
1582783375.8,286047000.6,N
1582783425.6,286047000.7,E
1582783435.5,286046999.1,N
1582783455.4,286046998.9,P
1582783475.2,286046999.1,P
1582783495.1,286046997.0,Y
1582783496.0,286046997.0,P
1582783515.8,286046999.0,N
1582783535.6,286046996.8,P
1582783555.5,286046999.6,N
1582783575.3,286047000.3,N
1582783595.2,286046998.1,N
1582783615.9,286046998.3,N
1582783635.7,286046998.7,N
1582783655.6,286047001.1,N
1582783675.4,286046999.9,N
1582783695.2,286047002.3,N
1582783715.1,286047000.2,N
1582783716.0,286047000.2,N
1582783735.8,286047001.9,N
1582783755.7,286047003.7,N
1582783775.5,286047001.6,N
1582783795.3,286047002.7,N
1582783815.2,286047000.6,N
1582783835.0,286047001.5,N
1582783835.9,286047001.5,N
1582783855.8,286047003.6,N
1582783875.6,286047005.4,N
1582783895.4,286047005.4,N
1582783915.3,286047003.4,N
1582783935.1,286047006.0,N
1582783955.9,286047003.5,N
1582783975.7,286047003.7,N
1582783995.5,286047002.2,N
1582784015.4,286047000.1,N
1582784035.2,286047002.1,N
1582784055.0,286047001.6,N
1582784055.9,286047001.6,N
1582784075.8,286047006.0,N
1582784095.6,286047004.9,N
1582784115.5,286047006.4,N
1582784135.3,286047005.3,N
1582784155.1,286047003.8,N
1582784175.9,286047001.8,N
1582784195.7,286047002.6,N
1582784215.5,286047001.3,N
1582784235.4,286047001.7,N
1582784255.2,286047002.0,N
1582784275.1,286047003.4,N
1582784276.0,286047003.4,N
1582784295.8,286047005.3,Y
1582784315.6,286047001.9,P
1582784335.5,286046999.8,N
1582784355.3,286047002.6,N
1582784375.2,286047002.7,N
1582784395.9,286047002.7,N
1582784415.7,286046999.9,N
1582784435.6,286047001.7,N
1582784455.4,286047002.1,N
1582784475.2,286047001.4,N
1582784495.1,286046999.7,N
1582784496.0,286046999.7,N
1582784515.8,286046999.8,N
1582784535.7,286046999.1,N
1582784555.5,286047000.5,N
1582784575.3,286047001.7,N
1582784595.2,286047001.3,N
1582784615.0,286047001.9,N
1582784615.9,286047001.9,N
1582784635.8,286047003.9,Y
1582784655.6,286047002.2,P
1582784675.4,286047001.8,P
1582784695.3,286046999.8,N
1582784715.1,286046999.9,N
1582784735.8,286047000.2,N
1582784755.7,286047000.0,N
1582784775.5,286047000.4,N
1582784795.4,286047002.7,Y
1582784815.2,286047000.0,P
1582784835.0,286047000.5,N
1582784835.9,286047000.5,N
1582784855.8,286047000.8,Y
1582784875.6,286046996.6,P
1582784895.5,286046997.9,N
1582784915.3,286046997.9,N
1582784935.1,286046997.7,N
1582784955.9,286046998.2,N
1582784975.7,286047000.5,N
1582784995.6,286047001.1,N
1582785015.4,286047001.0,N
1582785035.2,286046998.6,N
1582785055.1,286046998.3,N
1582785056.0,286046998.3,N
1582785075.8,286046996.7,N
1582785095.6,286046997.1,N
1582785115.5,286047001.2,N
1582785135.3,286047000.5,N
1582785155.2,286047000.1,N
1582785175.9,286047000.5,N
1582785195.7,286047001.4,N
1582785215.6,286047000.1,N
1582785235.4,286046999.7,N
1582785255.3,286047003.5,N
1582785275.1,286047002.2,N
1582785276.0,286047002.2,N
1582785295.8,286047000.0,N
1582785315.7,286047002.3,N
1582785335.5,286047002.1,N
1582785355.3,286047000.4,N
1582785375.2,286047000.7,N
1582785395.0,286047000.5,N
1582785395.9,286047000.5,N
1582785415.8,286047001.9,N
1582785435.6,286047001.8,N
1582785455.4,286047003.9,N
1582785475.3,286047001.9,N
1582785495.1,286047000.6,N
1582785515.9,286046998.1,N
1582785535.7,286047000.2,N
1582785555.5,286047000.5,N
1582785575.4,286047000.9,N
1582785595.2,286047002.7,N
1582785615.0,286047000.9,N
1582785615.9,286047000.9,N
1582785635.8,286046999.3,N
1582785655.6,286046998.2,N
1582785675.5,286047001.9,N
1582785695.3,286047002.2,N
1582785715.2,286047002.2,N
1582785735.9,286047004.4,Y
1582785755.7,286046999.9,P
1582785775.6,286046998.9,N
1582785795.4,286047000.6,N
1582785815.3,286047002.3,N
1582785835.1,286047001.8,N
1582785836.0,286047001.8,N
1582785855.8,286046998.2,N
1582785875.7,286046998.6,N
1582785895.5,286046998.3,N
1582785915.4,286047000.6,N
1582785935.2,286047000.2,N
1582785955.0,286047002.5,N
1582785955.9,286047002.5,N
1582785975.8,286047000.0,N
1582785995.6,286047000.3,N
1582786015.4,286047000.9,N
1582786035.3,286046998.5,N
1582786055.1,286046998.4,N
1582786075.9,286047000.5,N
1582786095.7,286047001.4,N
1582786115.5,286047003.2,N
1582786135.4,286047001.9,N
1582786155.2,286047003.7,N
1582786175.1,286047005.6,Y
1582786176.0,286047005.6,P
1582786195.8,286047004.4,N
1582786215.6,286047001.4,N
1582786235.5,286047000.1,N
1582786255.3,286047002.5,N
1582786275.1,286047001.9,N
1582786295.9,286047001.2,N
1582786315.7,286046998.5,N
1582786335.6,286046996.5,N
1582786355.4,286046999.5,N
1582786375.2,286046998.4,N
1582786395.1,286047000.3,N
1582786396.0,286047000.3,N
1582786415.8,286046998.2,N
1582786435.7,286047000.8,N
1582786455.5,286046999.3,N
1582786475.3,286046999.3,N
1582786495.2,286046999.0,N
1582786515.0,286046998.3,N
1582786515.9,286046998.3,N
1582786535.8,286047000.4,N
1582786555.6,286046999.0,N
1582786575.4,286046999.7,N
1582786595.3,286047001.0,N
1582786615.1,286046998.2,N
1582786635.8,286047002.7,N
1582786655.7,286047000.3,N
1582786675.5,286047000.8,N
1582786695.4,286047000.1,N
1582786715.2,286047000.9,N
1582786735.0,286047002.6,N
1582786735.9,286047002.6,N
1582786755.8,286046998.6,N
1582786775.6,286046999.1,N
1582786795.5,286046997.3,N
